Flag for Kenya Weather past 2 weeks in Nairobi, Kenya

Now
68 °F

Partly sunny.


Feels Like: 68 °F
Forecast: 58 / 68 °F
Wind: No wind

Location: Nairobi / Wilson

Current Time: Jul 1, 2015 at 2:59:36 PM

Latest Report: Jul 1, 2015 at 2:00 PM


Visibility: N/A

Pressure: 30.21 "Hg

Humidity: 64%

Dew point: 55 °F

Location of NairobiLocation

Historic Weather in Nairobi — Graph

°F

Nairobi temperature yesterday

Maximum temperature yesterday: 77 °F (at 2:00 PM)
Minimum temperature yesterday: 61 °F (at 5:00 AM)
Average temperature yesterday: 67 °F

Past Weeks' High & Low Weather Summary

 TemperatureHumidityPressure
High77 °F (Jun 25, 3:00 PM)94% (Jun 17, 7:00 AM)30.33 "Hg (Jun 17, 7:00 AM)
Low54 °F (Jun 22, 5:00 AM)41% (Jun 23, 3:00 PM)30.04 "Hg (Jun 17, 4:00 PM)
Average66 °F71%30.21 "Hg
* Reported Jun 16 4:00 PM — Jul 1 2:00 PM, Nairobi, Weather by CustomWeather, © 2015

Note: Actual official high and low records may vary slightly from our data, if they occured in-between our weather recording intervals... More about our weather records

Advertising

Nairobi weather history for previous 24 hours

 ConditionsComfort  
Time TempWeatherWind HumidityBarometerVisibility
2:00 PM
Wed, Jul 1
68 °FPartly sunny.No wind64%30.21 "HgN/A
1:00 PM68 °FOvercast.No wind64%30.24 "HgN/A
12:00 PM66 °FOvercast.3 mph68%30.27 "HgN/A
9:00 AM61 °FMore clouds than sun.No wind88%30.24 "Hg5 mi
8:00 AM61 °FPartly sunny.No wind88%30.21 "Hg5 mi
7:00 AM59 °FMostly cloudy.No wind94%30.21 "HgN/A
6:00 AM59 °FPassing clouds.No wind94%30.21 "HgN/A
5:00 AM59 °FPassing clouds.No wind94%30.18 "HgN/A
10:00 PM
Tue, Jun 30
63 °FPassing clouds.6 mph83%30.21 "HgN/A
9:00 PM64 °FPassing clouds.No wind78%30.21 "HgN/A
7:00 PM70 °FPassing clouds.9 mph57%30.18 "HgN/A
6:00 PM70 °FScattered clouds.12 mph57%30.15 "HgN/A
5:00 PM72 °FPartly sunny.8 mph53%30.15 "HgN/A
4:00 PM72 °FPartly sunny.8 mph57%30.15 "HgN/A
3:00 PM73 °FPartly sunny.No wind57%30.18 "HgN/A
2:00 PM77 °FPartly sunny.35 mph47%30.21 "HgN/A
Weather by CustomWeather, © 2015

See weather overviewHow to use our weather pages